Time,TemperatureF,DewpointF,PressureIn,WindDirection,WindDirectionDegrees,WindSpeedMPH,WindSpeedGustMPH,Humidity,HourlyPrecipIn,Conditions,Clouds,dailyrainin,SoftwareType,DateUTC
2013-02-10 00:00:00,33.0,-99.9,-100.00,NNE,31,8.0,15.0,-999,-99.99,,,-99.99,,2013-02-10 06:00:00,
2013-02-10 00:32:00,33.0,-99.9,-100.00,NNE,31,8.0,15.0,-999,-99.99,,,-99.99,,2013-02-10 06:32:00,
2013-02-10 00:42:00,33.0,-99.9,-100.00,NNE,31,8.0,15.0,-999,-99.99,,,-99.99,,2013-02-10 06:42:00,
2013-02-10 00:52:00,33.0,-99.9,-100.00,NNE,31,8.0,15.0,-999,-99.99,,,-99.99,,2013-02-10 06:52:00,
2013-02-10 01:00:00,33.0,-99.9,-100.00,NE,54,6.0,11.0,-999,-99.99,,,-99.99,,2013-02-10 07:00:00,
2013-02-10 01:32:00,33.0,-99.9,-100.00,NE,54,6.0,11.0,-999,-99.99,,,-99.99,,2013-02-10 07:32:00,
2013-02-10 01:42:00,33.0,-99.9,-100.00,NE,54,6.0,11.0,-999,-99.99,,,-99.99,,2013-02-10 07:42:00,
2013-02-10 01:52:00,33.0,-99.9,-100.00,NE,54,6.0,11.0,-999,-99.99,,,-99.99,,2013-02-10 07:52:00,
2013-02-10 02:00:00,33.0,-99.9,-100.00,ENE,74,18.0,18.0,-999,-99.99,,,-99.99,,2013-02-10 08:00:00,
2013-02-10 02:32:00,33.0,-99.9,-100.00,ENE,74,18.0,18.0,-999,-99.99,,,-99.99,,2013-02-10 08:32:00,
2013-02-10 02:43:00,33.0,-99.9,-100.00,ENE,74,18.0,18.0,-999,-99.99,,,-99.99,,2013-02-10 08:43:00,
2013-02-10 02:52:00,33.0,-99.9,-100.00,ENE,74,18.0,18.0,-999,-99.99,,,-99.99,,2013-02-10 08:52:00,
2013-02-10 03:00:00,33.0,-99.9,-100.00,ENE,64,16.0,22.0,-999,-99.99,,,-99.99,,2013-02-10 09:00:00,
2013-02-10 03:32:00,33.0,-99.9,-100.00,ENE,64,16.0,22.0,-999,-99.99,,,-99.99,,2013-02-10 09:32:00,
2013-02-10 03:42:00,33.0,-99.9,-100.00,ENE,64,16.0,22.0,-999,-99.99,,,-99.99,,2013-02-10 09:42:00,
2013-02-10 03:52:00,33.0,-99.9,-100.00,ENE,64,16.0,22.0,-999,-99.99,,,-99.99,,2013-02-10 09:52:00,
2013-02-10 04:00:00,33.0,-99.9,-100.00,NE,45,11.0,17.0,-999,-99.99,,,-99.99,,2013-02-10 10:00:00,
2013-02-10 04:32:00,33.0,-99.9,-100.00,NE,45,11.0,17.0,-999,-99.99,,,-99.99,,2013-02-10 10:32:00,
2013-02-10 04:42:00,33.0,-99.9,-100.00,NE,45,11.0,17.0,-999,-99.99,,,-99.99,,2013-02-10 10:42:00,
2013-02-10 04:52:00,33.0,-99.9,-100.00,NE,45,11.0,17.0,-999,-99.99,,,-99.99,,2013-02-10 10:52:00,
2013-02-10 05:00:00,33.0,-99.9,-100.00,ENE,73,7.0,17.0,-999,-99.99,,,-99.99,,2013-02-10 11:00:00,
2013-02-10 05:32:00,33.0,-99.9,-100.00,ENE,73,7.0,17.0,-999,-99.99,,,-99.99,,2013-02-10 11:32:00,
2013-02-10 05:42:00,33.0,-99.9,-100.00,ENE,73,7.0,17.0,-999,-99.99,,,-99.99,,2013-02-10 11:42:00,
2013-02-10 05:52:00,33.0,-99.9,-100.00,ENE,73,7.0,17.0,-999,-99.99,,,-99.99,,2013-02-10 11:52:00,
2013-02-10 06:00:00,34.0,-99.9,-100.00,East,87,7.0,15.0,-999,-99.99,,,-99.99,,2013-02-10 12:00:00,
2013-02-10 06:32:00,34.0,-99.9,-100.00,East,87,7.0,15.0,-999,-99.99,,,-99.99,,2013-02-10 12:32:00,
2013-02-10 06:42:00,34.0,-99.9,-100.00,East,87,7.0,15.0,-999,-99.99,,,-99.99,,2013-02-10 12:42:00,
2013-02-10 06:52:00,34.0,-99.9,-100.00,East,87,7.0,15.0,-999,-99.99,,,-99.99,,2013-02-10 12:52:00,
2013-02-10 09:00:00,36.0,-99.9,-100.00,East,100,6.0,16.0,-999,-99.99,,,-99.99,,2013-02-10 15:00:00,
2013-02-10 09:32:00,36.0,-99.9,-100.00,East,100,6.0,16.0,-999,-99.99,,,-99.99,,2013-02-10 15:32:00,
2013-02-10 09:42:00,36.0,-99.9,-100.00,East,100,6.0,16.0,-999,-99.99,,,-99.99,,2013-02-10 15:42:00,
2013-02-10 09:52:00,36.0,-99.9,-100.00,East,100,6.0,16.0,-999,-99.99,,,-99.99,,2013-02-10 15:52:00,
2013-02-10 10:00:00,37.0,-99.9,-100.00,ENE,67,4.0,10.0,-999,-99.99,,,-99.99,,2013-02-10 16:00:00,
2013-02-10 10:32:00,37.0,-99.9,-100.00,ENE,67,4.0,10.0,-999,-99.99,,,-99.99,,2013-02-10 16:32:00,
2013-02-10 10:42:00,37.0,-99.9,-100.00,ENE,67,4.0,10.0,-999,-99.99,,,-99.99,,2013-02-10 16:42:00,
2013-02-10 10:52:00,37.0,-99.9,-100.00,ENE,67,4.0,10.0,-999,-99.99,,,-99.99,,2013-02-10 16:52:00,
2013-02-10 11:00:00,39.0,-99.9,-100.00,NE,53,5.0,8.0,-999,-99.99,,,-99.99,,2013-02-10 17:00:00,
2013-02-10 11:32:00,39.0,-99.9,-100.00,NE,53,5.0,8.0,-999,-99.99,,,-99.99,,2013-02-10 17:32:00,
2013-02-10 11:43:00,39.0,-99.9,-100.00,NE,53,5.0,8.0,-999,-99.99,,,-99.99,,2013-02-10 17:43:00,
2013-02-10 11:53:00,39.0,-99.9,-100.00,NE,53,5.0,8.0,-999,-99.99,,,-99.99,,2013-02-10 17:53:00,
2013-02-10 12:00:00,41.0,-99.9,-100.00,ENE,75,6.0,13.0,-999,-99.99,,,-99.99,,2013-02-10 18:00:00,
2013-02-10 12:52:00,41.0,-99.9,-100.00,ENE,75,6.0,13.0,-999,-99.99,,,-99.99,,2013-02-10 18:52:00,
2013-02-10 13:00:00,43.0,-99.9,-100.00,East,82,10.0,11.0,-999,-99.99,,,-99.99,,2013-02-10 19:00:00,
2013-02-10 13:32:00,43.0,-99.9,-100.00,East,82,10.0,11.0,-999,-99.99,,,-99.99,,2013-02-10 19:32:00,
2013-02-10 13:43:00,43.0,-99.9,-100.00,East,82,10.0,11.0,-999,-99.99,,,-99.99,,2013-02-10 19:43:00,
2013-02-10 13:52:00,43.0,-99.9,-100.00,East,82,10.0,11.0,-999,-99.99,,,-99.99,,2013-02-10 19:52:00,
2013-02-10 14:00:00,44.0,-99.9,-100.00,SSE,163,9.0,22.0,-999,-99.99,,,-99.99,,2013-02-10 20:00:00,
2013-02-10 14:32:00,44.0,-99.9,-100.00,SSE,163,9.0,22.0,-999,-99.99,,,-99.99,,2013-02-10 20:32:00,
2013-02-10 14:42:00,44.0,-99.9,-100.00,SSE,163,9.0,22.0,-999,-99.99,,,-99.99,,2013-02-10 20:42:00,
2013-02-10 14:53:00,44.0,-99.9,-100.00,SSE,163,9.0,22.0,-999,-99.99,,,-99.99,,2013-02-10 20:53:00,
2013-02-10 15:00:00,41.0,-99.9,-100.00,SSE,163,14.0,24.0,-999,-99.99,,,-99.99,,2013-02-10 21:00:00,
2013-02-10 15:52:00,41.0,-99.9,-100.00,SSE,163,14.0,24.0,-999,-99.99,,,-99.99,,2013-02-10 21:52:00,
2013-02-10 16:00:00,40.0,-99.9,-100.00,SSW,199,9.0,29.0,-999,-99.99,,,-99.99,,2013-02-10 22:00:00,
2013-02-10 16:32:00,40.0,-99.9,-100.00,SSW,199,9.0,29.0,-999,-99.99,,,-99.99,,2013-02-10 22:32:00,
2013-02-10 16:42:00,40.0,-99.9,-100.00,SSW,199,9.0,29.0,-999,-99.99,,,-99.99,,2013-02-10 22:42:00,
2013-02-10 16:53:00,40.0,-99.9,-100.00,SSW,199,9.0,29.0,-999,-99.99,,,-99.99,,2013-02-10 22:53:00,
2013-02-10 17:00:00,37.0,-99.9,-100.00,SSE,157,8.0,21.0,-999,-99.99,,,-99.99,,2013-02-10 23:00:00,
2013-02-10 17:32:00,37.0,-99.9,-100.00,SSE,157,8.0,21.0,-999,-99.99,,,-99.99,,2013-02-10 23:32:00,
2013-02-10 17:42:00,37.0,-99.9,-100.00,SSE,157,8.0,21.0,-999,-99.99,,,-99.99,,2013-02-10 23:42:00,
2013-02-10 17:53:00,37.0,-99.9,-100.00,SSE,157,8.0,21.0,-999,-99.99,,,-99.99,,2013-02-10 23:53:00,
2013-02-10 18:00:00,36.0,-99.9,-100.00,SSW,197,9.0,23.0,-999,-99.99,,,-99.99,,2013-02-11 00:00:00,
2013-02-10 18:32:00,36.0,-99.9,-100.00,SSW,197,9.0,23.0,-999,-99.99,,,-99.99,,2013-02-11 00:32:00,
2013-02-10 18:42:00,36.0,-99.9,-100.00,SSW,197,9.0,23.0,-999,-99.99,,,-99.99,,2013-02-11 00:42:00,
2013-02-10 18:52:00,36.0,-99.9,-100.00,SSW,197,9.0,23.0,-999,-99.99,,,-99.99,,2013-02-11 00:52:00,
2013-02-10 20:00:00,32.0,-99.9,-100.00,South,182,13.0,30.0,-999,-99.99,,,-99.99,,2013-02-11 02:00:00,
2013-02-10 20:32:00,32.0,-99.9,-100.00,South,182,13.0,30.0,-999,-99.99,,,-99.99,,2013-02-11 02:32:00,
2013-02-10 20:42:00,32.0,-99.9,-100.00,South,182,13.0,30.0,-999,-99.99,,,-99.99,,2013-02-11 02:42:00,
2013-02-10 20:52:00,32.0,-99.9,-100.00,South,182,13.0,30.0,-999,-99.99,,,-99.99,,2013-02-11 02:52:00,
2013-02-10 21:00:00,31.0,-99.9,-100.00,SW,215,13.0,22.0,-999,-99.99,,,-99.99,,2013-02-11 03:00:00,
2013-02-10 21:32:00,31.0,-99.9,-100.00,SW,215,13.0,22.0,-999,-99.99,,,-99.99,,2013-02-11 03:32:00,
2013-02-10 21:42:00,31.0,-99.9,-100.00,SW,215,13.0,22.0,-999,-99.99,,,-99.99,,2013-02-11 03:42:00,
2013-02-10 21:52:00,31.0,-99.9,-100.00,SW,215,13.0,22.0,-999,-99.99,,,-99.99,,2013-02-11 03:52:00,
2013-02-10 22:00:00,31.0,-99.9,-100.00,SE,139,2.0,28.0,-999,-99.99,,,-99.99,,2013-02-11 04:00:00,
2013-02-10 22:32:00,31.0,-99.9,-100.00,SE,139,2.0,28.0,-999,-99.99,,,-99.99,,2013-02-11 04:32:00,
2013-02-10 22:42:00,31.0,-99.9,-100.00,SE,139,2.0,28.0,-999,-99.99,,,-99.99,,2013-02-11 04:42:00,
2013-02-10 22:52:00,31.0,-99.9,-100.00,SE,139,2.0,28.0,-999,-99.99,,,-99.99,,2013-02-11 04:52:00,
2013-02-10 23:00:00,30.0,-99.9,-100.00,SSW,208,22.0,26.0,-999,-99.99,,,-99.99,,2013-02-11 05:00:00,
2013-02-10 23:32:00,30.0,-99.9,-100.00,SSW,208,22.0,26.0,-999,-99.99,,,-99.99,,2013-02-11 05:32:00,
2013-02-10 23:42:00,30.0,-99.9,-100.00,SSW,208,22.0,26.0,-999,-99.99,,,-99.99,,2013-02-11 05:42:00,
2013-02-10 23:53:00,30.0,-99.9,-100.00,SSW,208,22.0,26.0,-999,-99.99,,,-99.99,,2013-02-11 05:53:00,